QPF
0.00 0.00 0.00 0.00 0.00 0.00 0.00 0.00 0.00 0.00 0.00 0.00 0.00 0.00 0.00 0.00 0.00 0.00 0.00 0.00 0.00 0.01 0.02 0.03 0.04 0.04 0.05 0.08 0.11 0.13 0.18 0.24 0.29 0.30 0.27 0.22 0.16 0.11 0.10 0.11 0.11 0.09 0.07 0.06
0.00 0.00 0.00 0.00 0.00 0.00 0.00 0.00 0.00 0.00 0.00 0.00 0.00 0.00 0.00 0.00 0.00 0.00 0.00 0.00 0.00 0.01 0.02 0.02 0.03 0.04 0.07 0.08 0.10 0.12 0.16 0.21 0.27 0.29 0.25 0.21 0.16 0.13 0.14 0.13 0.11 0.08 0.07 0.06
0.00 0.00 0.00 0.00 0.00 0.00 0.00 0.00 0.00 0.00 0.00 0.00 0.00 0.00 0.00 0.00 0.00 0.00 0.00 0.00 0.00 0.01 0.01 0.01 0.02 0.02 0.04 0.06 0.07 0.10 0.12 0.14 0.16 0.18 0.19 0.16 0.14 0.11 0.10 0.10 0.09 0.07 0.05 0.05
0.00 0.00 0.00 0.00 0.00 0.00 0.00 0.00 0.00 0.00 0.00 0.00 0.00 0.00 0.00 0.00 0.00 0.00 0.00 0.00 0.00 0.00 0.00 0.01 0.01 0.02 0.03 0.04 0.08 0.09 0.10 0.13 0.13 0.14 0.14 0.12 0.11 0.09 0.08 0.09 0.09 0.08 0.06 0.05
0.00 0.00 0.00 0.00 0.00 0.00 0.00 0.00 0.00 0.00 0.00 0.00 0.00 0.00 0.00 0.00 0.00 0.00 0.00 0.00 0.00 0.00 0.00 0.00 0.01 0.02 0.03 0.05 0.08 0.10 0.11 0.15 0.14 0.13 0.12 0.13 0.12 0.11 0.10 0.11 0.09 0.09 0.08 0.06
0.00 0.00 0.00 0.00 0.00 0.00 0.00 0.00 0.00 0.00 0.00 0.00 0.00 0.00 0.00 0.00 0.00 0.00 0.00 0.00 0.00 0.00 0.00 0.00 0.01 0.01 0.03 0.06 0.07 0.10 0.11 0.15 0.15 0.12 0.11 0.13 0.15 0.15 0.12 0.09 0.08 0.07 0.07 0.06
0.00 0.00 0.00 0.00 0.00 0.00 0.00 0.00 0.00 0.00 0.00 0.00 0.00 0.00 0.00 0.00 0.00 0.00 0.00 0.00 0.00 0.00 0.00 0.00 0.00 0.01 0.03 0.03 0.05 0.09 0.10 0.11 0.10 0.11 0.12 0.12 0.17 0.19 0.17 0.12 0.09 0.07 0.05 0.05
0.00 0.00 0.00 0.00 0.00 0.00 0.00 0.00 0.00 0.00 0.00 0.00 0.00 0.00 0.00 0.00 0.00 0.00 0.00 0.00 0.00 0.00 0.00 0.00 0.00 0.00 0.02 0.02 0.03 0.06 0.08 0.09 0.10 0.09 0.11 0.12 0.16 0.16 0.14 0.13 0.11 0.08 0.05 0.05
0.00 0.00 0.00 0.00 0.00 0.00 0.00 0.00 0.00 0.00 0.00 0.00 0.00 0.00 0.00 0.00 0.00 0.00 0.00 0.00 0.00 0.00 0.00 0.00 0.00 0.00 0.01 0.01 0.02 0.04 0.06 0.07 0.08 0.08 0.09 0.10 0.13 0.12 0.12 0.10 0.09 0.08 0.06 0.04
0.00 0.00 0.00 0.00 0.00 0.00 0.00 0.00 0.00 0.00 0.00 0.00 0.00 0.00 0.00 0.00 0.00 0.00 0.00 0.00 0.00 0.01 0.01 0.00 0.00 0.00 0.00 0.01 0.01 0.03 0.05 0.05 0.06 0.05 0.06 0.07 0.09 0.10 0.11 0.09 0.07 0.07 0.06 0.04
0.00 0.00 0.00 0.00 0.00 0.00 0.00 0.00 0.00 0.00 0.00 0.00 0.00 0.00 0.00 0.00 0.00 0.00 0.00 0.00 0.00 0.01 0.01 0.01 0.00 0.00 0.00 0.00 0.01 0.02 0.03 0.04 0.04 0.05 0.05 0.06 0.08 0.09 0.10 0.09 0.07 0.07 0.07 0.05
0.00 0.00 0.00 0.00 0.00 0.00 0.00 0.00 0.00 0.00 0.00 0.00 0.00 0.00 0.00 0.00 0.00 0.00 0.00 0.00 0.00 0.01 0.01 0.01 0.00 0.00 0.00 0.00 0.01 0.01 0.02 0.03 0.03 0.04 0.06 0.07 0.09 0.11 0.11 0.10 0.09 0.07 0.07 0.05
0.00 0.00 0.00 0.01 0.01 0.00 0.00 0.00 0.00 0.00 0.00 0.00 0.01 0.00 0.00 0.00 0.00 0.00 0.00 0.00 0.00 0.00 0.01 0.01 0.00 0.00 0.00 0.00 0.00 0.01 0.01 0.02 0.02 0.04 0.06 0.07 0.09 0.09 0.08 0.08 0.08 0.07 0.05 0.05
0.00 0.00 0.00 0.00 0.00 0.00 0.00 0.00 0.00 0.00 0.00 0.00 0.00 0.00 0.00 0.00 0.00 0.00 0.00 0.00 0.00 0.00 0.00 0.00 0.00 0.00 0.00 0.00 0.00 0.00 0.01 0.02 0.02 0.03 0.05 0.07 0.08 0.08 0.07 0.06 0.06 0.04 0.04 0.04
0.00 0.00 0.00 0.00 0.00 0.00 0.00 0.00 0.00 0.00 0.00 0.00 0.00 0.00 0.00 0.00 0.00 0.00 0.00 0.00 0.00 0.00 0.00 0.00 0.00 0.00 0.01 0.01 0.00 0.00 0.01 0.01 0.02 0.03 0.06 0.07 0.08 0.07 0.06 0.04 0.05 0.04 0.04 0.03
0.00 0.00 0.00 0.00 0.00 0.00 0.00 0.00 0.00 0.00 0.00 0.00 0.00 0.00 0.00 0.00 0.00 0.00 0.00 0.00 0.00 0.00 0.00 0.00 0.00 0.01 0.01 0.01 0.01 0.01 0.01 0.02 0.02 0.03 0.06 0.07 0.06 0.06 0.05 0.04 0.03 0.03 0.03 0.04
0.00 0.00 0.00 0.00 0.00 0.00 0.00 0.00 0.00 0.00 0.00 0.00 0.00 0.00 0.00 0.00 0.00 0.00 0.00 0.00 0.00 0.00 0.00 0.00 0.01 0.01 0.02 0.02 0.02 0.02 0.02 0.02 0.02 0.02 0.03 0.04 0.03 0.03 0.03 0.03 0.03 0.02 0.03 0.04
0.00 0.01 0.01 0.00 0.00 0.00 0.00 0.00 0.00 0.00 0.00 0.00 0.00 0.00 0.00 0.00 0.00 0.00 0.00 0.01 0.01 0.00 0.01 0.01 0.02 0.02 0.02 0.03 0.03 0.03 0.02 0.02 0.02 0.03 0.04 0.04 0.03 0.03 0.03 0.03 0.03 0.03 0.04 0.05
0.00 0.01 0.02 0.01 0.01 0.00 0.01 0.01 0.01 0.01 0.01 0.00 0.01 0.00 0.00 0.00 0.00 0.00 0.00 0.01 0.01 0.01 0.01 0.01 0.02 0.02 0.02 0.02 0.02 0.02 0.02 0.02 0.02 0.02 0.02 0.03 0.03 0.03 0.03 0.03 0.03 0.04 0.04 0.04
0.01 0.01 0.03 0.03 0.02 0.01 0.01 0.01 0.01 0.02 0.03 0.01 0.01 0.01 0.01 0.01 0.02 0.02 0.01 0.01 0.01 0.02 0.02 0.03 0.03 0.02 0.02 0.02 0.02 0.02 0.02 0.03 0.02 0.03 0.02 0.03 0.03 0.03 0.03 0.04 0.04 0.05 0.05 0.05
0.03 0.03 0.03 0.05 0.05 0.03 0.01 0.01 0.03 0.05 0.04 0.02 0.02 0.02 0.03 0.03 0.03 0.03 0.02 0.02 0.02 0.03 0.03 0.03 0.03 0.02 0.02 0.01 0.02 0.02 0.02 0.03 0.02 0.03 0.04 0.04 0.04 0.04 0.06 0.06 0.05 0.04 0.04 0.05
0.05 0.04 0.04 0.06 0.07 0.06 0.03 0.03 0.05 0.04 0.03 0.02 0.03 0.05 0.04 0.03 0.03 0.04 0.03 0.02 0.03 0.03 0.02 0.03 0.03 0.02 0.03 0.02 0.02 0.02 0.02 0.03 0.03 0.04 0.05 0.06 0.07 0.09 0.10 0.10 0.07 0.06 0.05 0.06
0.03 0.04 0.07 0.07 0.06 0.06 0.05 0.10 0.12 0.07 0.04 0.03 0.04 0.05 0.05 0.05 0.04 0.06 0.07 0.05 0.04 0.03 0.03 0.03 0.02 0.02 0.02 0.02 0.02 0.02 0.02 0.03 0.03 0.04 0.05 0.05 0.05 0.07 0.09 0.09 0.08 0.06 0.05 0.05
0.06 0.08 0.10 0.08 0.10 0.09 0.08 0.11 0.13 0.11 0.08 0.07 0.06 0.05 0.05 0.05 0.06 0.07 0.07 0.06 0.05 0.03 0.02 0.02 0.02 0.02 0.02 0.03 0.03 0.03 0.03 0.02 0.03 0.03 0.03 0.03 0.03 0.03 0.03 0.03 0.04 0.04 0.04 0.04
0.10 0.12 0.12 0.14 0.16 0.16 0.14 0.12 0.11 0.11 0.10 0.09 0.10 0.08 0.06 0.07 0.08 0.08 0.06 0.04 0.04 0.03 0.02 0.02 0.02 0.02 0.02 0.02 0.03 0.03 0.03 0.02 0.02 0.02 0.02 0.03 0.03 0.03 0.03 0.03 0.02 0.02 0.02 0.02
0.07 0.10 0.12 0.13 0.13 0.16 0.18 0.14 0.12 0.12 0.14 0.14 0.13 0.11 0.08 0.08 0.08 0.09 0.06 0.05 0.04 0.03 0.02 0.02 0.02 0.02 0.02 0.02 0.02 0.02 0.01 0.01 0.01 0.01 0.01 0.02 0.02 0.02 0.02 0.01 0.01 0.01 0.01 0.02
MSLP
1010.30 1010.61 1010.75 1010.75 1010.64 1010.46 1010.25 1010.03 1009.81 1009.57 1009.28 1008.93 1008.51 1008.03 1007.52 1007.02 1006.61 1006.32 1006.19 1006.26 1006.49 1006.89 1007.41 1008.01 1008.65 1009.30 1009.93 1010.53 1011.10 1011.65 1012.15 1012.63 1013.08 1013.51 1013.92 1014.31 1014.70 1015.11 1015.53 1015.97 1016.43 1016.88 1017.31 1017.70
1010.44 1010.67 1010.74 1010.69 1010.56 1010.41 1010.26 1010.13 1010.01 1009.86 1009.65 1009.34 1008.94 1008.44 1007.88 1007.33 1006.85 1006.49 1006.31 1006.32 1006.52 1006.88 1007.36 1007.91 1008.50 1009.08 1009.65 1010.20 1010.74 1011.26 1011.79 1012.31 1012.81 1013.30 1013.77 1014.21 1014.62 1015.02 1015.42 1015.82 1016.22 1016.63 1017.04 1017.42
1010.31 1010.45 1010.46 1010.38 1010.27 1010.18 1010.13 1010.11 1010.11 1010.07 1009.94 1009.69 1009.29 1008.77 1008.16 1007.54 1006.99 1006.58 1006.35 1006.33 1006.50 1006.84 1007.29 1007.81 1008.34 1008.87 1009.37 1009.86 1010.36 1010.86 1011.39 1011.94 1012.51 1013.06 1013.60 1014.09 1014.54 1014.94 1015.31 1015.66 1016.02 1016.38 1016.75 1017.12
1009.92 1009.99 1009.95 1009.87 1009.80 1009.80 1009.86 1009.99 1010.13 1010.21 1010.16 1009.95 1009.56 1009.00 1008.34 1007.65 1007.03 1006.56 1006.29 1006.25 1006.41 1006.75 1007.19 1007.69 1008.19 1008.67 1009.12 1009.55 1009.99 1010.47 1011.00 1011.57 1012.19 1012.81 1013.41 1013.96 1014.44 1014.85 1015.21 1015.53 1015.83 1016.14 1016.47 1016.83
1009.37 1009.37 1009.30 1009.24 1009.24 1009.34 1009.55 1009.82 1010.10 1010.29 1010.33 1010.15 1009.75 1009.15 1008.42 1007.66 1006.97 1006.44 1006.14 1006.09 1006.26 1006.61 1007.06 1007.56 1008.05 1008.49 1008.89 1009.28 1009.67 1010.11 1010.62 1011.21 1011.86 1012.53 1013.19 1013.79 1014.32 1014.76 1015.11 1015.40 1015.67 1015.94 1016.23 1016.56
1008.77 1008.71 1008.63 1008.60 1008.68 1008.90 1009.24 1009.66 1010.07 1010.36 1010.46 1010.31 1009.88 1009.23 1008.43 1007.59 1006.83 1006.26 1005.93 1005.86 1006.05 1006.42 1006.91 1007.42 1007.91 1008.34 1008.71 1009.05 1009.39 1009.79 1010.28 1010.86 1011.52 1012.23 1012.93 1013.59 1014.16 1014.63 1014.99 1015.27 1015.51 1015.75 1016.01 1016.33
1008.21 1008.12 1008.05 1008.06 1008.21 1008.54 1009.00 1009.54 1010.05 1010.42 1010.56 1010.41 1009.96 1009.26 1008.39 1007.47 1006.65 1006.03 1005.67 1005.61 1005.81 1006.21 1006.73 1007.27 1007.78 1008.21 1008.56 1008.86 1009.16 1009.52 1009.96 1010.52 1011.18 1011.90 1012.63 1013.32 1013.93 1014.43 1014.81 1015.10 1015.34 1015.56 1015.80 1016.10
1007.77 1007.67 1007.60 1007.66 1007.88 1008.28 1008.83 1009.45 1010.02 1010.44 1010.61 1010.45 1009.97 1009.22 1008.29 1007.32 1006.45 1005.79 1005.41 1005.34 1005.56 1005.99 1006.54 1007.12 1007.65 1008.09 1008.43 1008.71 1008.97 1009.28 1009.68 1010.20 1010.83 1011.54 1012.28 1012.99 1013.63 1014.16 1014.56 1014.87 1015.11 1015.33 1015.57 1015.86
1007.47 1007.36 1007.32 1007.40 1007.66 1008.11 1008.70 1009.36 1009.96 1010.39 1010.55 1010.38 1009.88 1009.10 1008.14 1007.14 1006.24 1005.55 1005.17 1005.10 1005.33 1005.78 1006.35 1006.96 1007.51 1007.96 1008.31 1008.58 1008.82 1009.09 1009.44 1009.92 1010.50 1011.18 1011.90 1012.61 1013.26 1013.81 1014.24 1014.57 1014.83 1015.06 1015.30 1015.59
1007.29 1007.19 1007.16 1007.26 1007.54 1007.99 1008.58 1009.22 1009.80 1010.21 1010.35 1010.16 1009.65 1008.87 1007.91 1006.91 1006.01 1005.33 1004.95 1004.88 1005.11 1005.57 1006.16 1006.78 1007.36 1007.83 1008.19 1008.46 1008.69 1008.93 1009.25 1009.67 1010.21 1010.84 1011.53 1012.21 1012.86 1013.41 1013.86 1014.22 1014.50 1014.75 1015.01 1015.30
1007.19 1007.11 1007.10 1007.20 1007.46 1007.87 1008.40 1008.98 1009.50 1009.86 1009.96 1009.77 1009.26 1008.50 1007.58 1006.63 1005.77 1005.12 1004.75 1004.69 1004.92 1005.37 1005.96 1006.59 1007.18 1007.67 1008.05 1008.34 1008.58 1008.82 1009.11 1009.50 1009.98 1010.56 1011.20 1011.84 1012.46 1013.00 1013.46 1013.84 1014.15 1014.42 1014.70 1015.00
1007.14 1007.10 1007.10 1007.18 1007.40 1007.74 1008.19 1008.66 1009.08 1009.36 1009.42 1009.20 1008.72 1008.01 1007.17 1006.29 1005.50 1004.91 1004.57 1004.52 1004.74 1005.18 1005.75 1006.36 1006.95 1007.46 1007.87 1008.20 1008.46 1008.72 1009.01 1009.38 1009.83 1010.36 1010.94 1011.53 1012.11 1012.63 1013.08 1013.47 1013.79 1014.09 1014.39 1014.70
1007.15 1007.15 1007.16 1007.23 1007.39 1007.64 1007.96 1008.30 1008.60 1008.77 1008.76 1008.53 1008.07 1007.44 1006.69 1005.91 1005.22 1004.70 1004.41 1004.37 1004.57 1004.97 1005.50 1006.09 1006.67 1007.19 1007.64 1008.00 1008.32 1008.61 1008.93 1009.30 1009.73 1010.22 1010.75 1011.30 1011.83 1012.31 1012.75 1013.13 1013.47 1013.78 1014.09 1014.42
1007.25 1007.30 1007.33 1007.38 1007.48 1007.62 1007.80 1007.98 1008.13 1008.17 1008.08 1007.82 1007.40 1006.83 1006.19 1005.53 1004.95 1004.51 1004.26 1004.23 1004.40 1004.76 1005.23 1005.78 1006.33 1006.85 1007.31 1007.73 1008.10 1008.46 1008.82 1009.22 1009.66 1010.13 1010.62 1011.12 1011.60 1012.05 1012.46 1012.82 1013.16 1013.48 1013.80 1014.14
1007.47 1007.58 1007.64 1007.68 1007.71 1007.74 1007.78 1007.79 1007.77 1007.68 1007.49 1007.19 1006.78 1006.28 1005.74 1005.19 1004.71 1004.35 1004.15 1004.11 1004.25 1004.54 1004.94 1005.41 1005.92 1006.42 1006.90 1007.35 1007.78 1008.21 1008.64 1009.08 1009.54 1010.01 1010.49 1010.95 1011.40 1011.81 1012.18 1012.53 1012.85 1013.17 1013.49 1013.82
1007.82 1008.00 1008.11 1008.14 1008.12 1008.05 1007.94 1007.79 1007.60 1007.36 1007.07 1006.71 1006.30 1005.85 1005.39 1004.95 1004.57 1004.27 1004.10 1004.06 1004.14 1004.35 1004.66 1005.04 1005.46 1005.92 1006.39 1006.87 1007.35 1007.84 1008.33 1008.83 1009.34 1009.83 1010.30 1010.75 1011.16 1011.54 1011.88 1012.20 1012.50 1012.81 1013.12 1013.44
1008.28 1008.53 1008.69 1008.73 1008.67 1008.51 1008.27 1007.97 1007.63 1007.25 1006.85 1006.43 1006.01 1005.59 1005.19 1004.84 1004.54 1004.30 1004.15 1004.08 1004.11 1004.22 1004.42 1004.69 1005.02 1005.40 1005.83 1006.31 1006.82 1007.35 1007.90 1008.46 1009.01 1009.54 1010.02 1010.47 1010.86 1011.22 1011.53 1011.82 1012.10 1012.38 1012.67 1012.97
1008.78 1009.10 1009.29 1009.35 1009.26 1009.04 1008.70 1008.28 1007.80 1007.31 1006.81 1006.34 1005.90 1005.51 1005.17 1004.88 1004.65 1004.46 1004.33 1004.24 1004.20 1004.22 1004.30 1004.44 1004.65 1004.94 1005.30 1005.74 1006.24 1006.79 1007.39 1007.99 1008.58 1009.14 1009.65 1010.10 1010.49 1010.83 1011.12 1011.38 1011.63 1011.88 1012.14 1012.42
1009.20 1009.56 1009.79 1009.86 1009.76 1009.50 1009.10 1008.59 1008.03 1007.44 1006.89 1006.38 1005.94 1005.58 1005.30 1005.08 1004.91 1004.77 1004.65 1004.55 1004.45 1004.38 1004.34 1004.36 1004.44 1004.61 1004.88 1005.26 1005.72 1006.26 1006.87 1007.49 1008.11 1008.70 1009.22 1009.69 1010.08 1010.41 1010.69 1010.93 1011.15 1011.37 1011.60 1011.84
1009.45 1009.81 1010.05 1010.12 1010.02 1009.74 1009.31 1008.77 1008.17 1007.56 1006.98 1006.48 1006.07 1005.76 1005.54 1005.40 1005.30 1005.22 1005.13 1005.02 1004.89 1004.74 1004.61 1004.51 1004.47 1004.52 1004.69 1004.98 1005.38 1005.88 1006.46 1007.08 1007.70 1008.30 1008.84 1009.31 1009.71 1010.03 1010.30 1010.52 1010.72 1010.91 1011.11 1011.31
1009.43 1009.76 1009.98 1010.05 1009.94 1009.67 1009.25 1008.72 1008.14 1007.55 1007.02 1006.56 1006.22 1005.99 1005.86 1005.80 1005.79 1005.77 1005.73 1005.64 1005.50 1005.32 1005.12 1004.93 1004.79 1004.74 1004.81 1005.00 1005.32 1005.76 1006.29 1006.88 1007.48 1008.07 1008.61 1009.07 1009.47 1009.78 1010.04 1010.24 1010.42 1010.59 1010.76 1010.94
1009.14 1009.39 1009.56 1009.60 1009.50 1009.25 1008.87 1008.40 1007.89 1007.39 1006.95 1006.59 1006.36 1006.23 1006.21 1006.26 1006.34 1006.42 1006.44 1006.40 1006.29 1006.10 1005.87 1005.64 1005.43 1005.30 1005.28 1005.39 1005.62 1005.99 1006.45 1006.98 1007.54 1008.09 1008.59 1009.04 1009.42 1009.72 1009.96 1010.15 1010.31 1010.46 1010.61 1010.76
1008.63 1008.77 1008.86 1008.86 1008.75 1008.54 1008.23 1007.86 1007.47 1007.09 1006.79 1006.57 1006.47 1006.48 1006.58 1006.75 1006.94 1007.11 1007.22 1007.25 1007.19 1007.04 1006.83 1006.59 1006.36 1006.19 1006.11 1006.15 1006.31 1006.58 1006.97 1007.42 1007.90 1008.39 1008.85 1009.25 1009.59 1009.86 1010.08 1010.25 1010.39 1010.52 1010.66 1010.80
1008.01 1008.02 1008.00 1007.95 1007.84 1007.67 1007.45 1007.20 1006.95 1006.74 1006.59 1006.54 1006.59 1006.74 1006.97 1007.26 1007.55 1007.82 1008.03 1008.14 1008.16 1008.08 1007.92 1007.72 1007.51 1007.34 1007.24 1007.22 1007.32 1007.52 1007.81 1008.17 1008.56 1008.96 1009.34 1009.67 1009.95 1010.18 1010.36 1010.50 1010.63 1010.75 1010.87 1011.01
1007.41 1007.29 1007.17 1007.06 1006.95 1006.82 1006.69 1006.57 1006.47 1006.43 1006.46 1006.57 1006.77 1007.05 1007.40 1007.79 1008.18 1008.54 1008.83 1009.04 1009.14 1009.15 1009.08 1008.95 1008.79 1008.65 1008.55 1008.52 1008.56 1008.69 1008.89 1009.14 1009.42 1009.71 1009.98 1010.22 1010.43 1010.59 1010.72 1010.83 1010.93 1011.04 1011.15 1011.29
1006.98 1006.74 1006.54 1006.37 1006.25 1006.17 1006.12 1006.12 1006.18 1006.29 1006.47 1006.73 1007.06 1007.45 1007.89 1008.36 1008.82 1009.25 1009.62 1009.90 1010.10 1010.20 1010.22 1010.18 1010.09 1010.00 1009.93 1009.89 1009.89 1009.95 1010.05 1010.19 1010.35 1010.51 1010.66 1010.79 1010.90 1010.98 1011.06 1011.12 1011.19 1011.28 1011.39 1011.52
Thickness
5784 5777 5775 5784 5790 5792 5790 5786 5785 5794 5805 5799 5799 5802 5808 5808 5802 5798 5795 5791 5785 5781 5779 5775 5769 5765 5760 5754 5750 5745 5742 5741 5740 5738 5737 5736 5736 5738 5739 5740 5739 5739 5739 5739
5770 5770 5786 5791 5788 5783 5782 5779 5784 5793 5800 5796 5796 5800 5810 5806 5800 5797 5793 5788 5783 5779 5775 5770 5766 5761 5756 5751 5747 5744 5742 5740 5738 5738 5738 5738 5737 5737 5738 5738 5737 5738 5738 5738
5769 5782 5789 5782 5776 5773 5777 5779 5783 5783 5792 5798 5792 5795 5803 5802 5799 5796 5793 5790 5786 5780 5774 5769 5764 5760 5755 5750 5747 5744 5741 5739 5737 5736 5735 5735 5734 5734 5735 5735 5736 5737 5737 5737
5773 5785 5779 5774 5774 5775 5771 5787 5784 5781 5779 5786 5786 5776 5797 5799 5793 5792 5790 5788 5785 5782 5777 5771 5765 5760 5756 5752 5748 5743 5740 5738 5737 5736 5735 5734 5733 5733 5735 5736 5737 5736 5736 5737
5769 5778 5772 5768 5777 5780 5780 5787 5783 5782 5779 5779 5786 5776 5792 5798 5789 5792 5791 5789 5787 5783 5778 5771 5766 5761 5757 5752 5747 5743 5739 5737 5737 5737 5736 5734 5734 5735 5736 5736 5735 5735 5735 5736
5777 5784 5781 5781 5787 5787 5785 5779 5778 5779 5780 5763 5778 5771 5779 5797 5792 5794 5793 5790 5786 5783 5778 5772 5767 5761 5755 5751 5747 5742 5738 5737 5737 5737 5736 5735 5734 5734 5734 5734 5734 5734 5735 5735
5761 5772 5782 5787 5777 5780 5777 5765 5755 5753 5757 5763 5781 5770 5781 5799 5800 5797 5794 5790 5788 5784 5778 5771 5765 5760 5755 5751 5747 5743 5738 5736 5737 5737 5736 5736 5735 5734 5733 5734 5734 5735 5735 5735
5751 5756 5775 5781 5777 5774 5773 5771 5752 5743 5751 5767 5774 5768 5789 5801 5801 5799 5797 5793 5788 5784 5779 5772 5767 5762 5757 5753 5748 5744 5739 5737 5736 5736 5735 5736 5736 5735 5736 5736 5737 5736 5737 5738
5758 5758 5778 5782 5785 5781 5770 5771 5785 5770 5766 5758 5770 5778 5792 5799 5796 5794 5792 5790 5786 5783 5779 5774 5769 5764 5760 5755 5750 5746 5741 5738 5737 5736 5735 5734 5735 5736 5737 5737 5737 5738 5737 5738
5768 5755 5769 5777 5779 5778 5782 5782 5770 5761 5744 5743 5761 5769 5777 5786 5789 5790 5788 5787 5786 5783 5779 5775 5770 5766 5762 5758 5753 5748 5744 5740 5739 5738 5737 5737 5737 5737 5737 5737 5736 5737 5736 5736
5767 5753 5759 5765 5763 5766 5765 5766 5766 5767 5765 5748 5746 5765 5794 5790 5790 5790 5789 5789 5787 5784 5780 5775 5770 5767 5763 5758 5754 5748 5745 5742 5740 5739 5738 5738 5738 5738 5738 5736 5737 5736 5735 5734
5760 5756 5753 5762 5775 5779 5774 5771 5766 5751 5751 5756 5753 5767 5800 5796 5796 5793 5791 5789 5788 5784 5780 5776 5771 5766 5762 5758 5754 5750 5747 5744 5742 5741 5739 5739 5738 5738 5737 5737 5737 5736 5734 5734
5752 5745 5736 5743 5753 5761 5762 5768 5770 5768 5763 5756 5751 5765 5793 5793 5792 5792 5789 5787 5785 5781 5778 5775 5770 5765 5761 5758 5755 5753 5750 5748 5746 5744 5741 5739 5738 5738 5737 5737 5736 5736 5735 5734
5749 5743 5741 5740 5751 5759 5754 5759 5763 5761 5752 5754 5759 5769 5781 5784 5785 5786 5786 5785 5783 5779 5776 5773 5768 5765 5761 5759 5756 5754 5752 5751 5749 5746 5744 5741 5739 5738 5737 5736 5736 5735 5735 5733
5740 5735 5741 5749 5754 5754 5753 5755 5757 5754 5758 5756 5764 5769 5778 5780 5782 5782 5784 5783 5779 5775 5773 5771 5768 5765 5761 5758 5756 5754 5752 5751 5749 5746 5744 5742 5740 5739 5737 5736 5734 5733 5732 5731
5729 5725 5730 5732 5743 5745 5743 5749 5752 5753 5756 5758 5762 5766 5780 5781 5779 5777 5778 5777 5774 5772 5771 5769 5766 5763 5759 5757 5755 5753 5751 5749 5747 5744 5743 5741 5739 5737 5736 5734 5732 5731 5729 5728
5719 5713 5712 5719 5732 5729 5727 5745 5748 5750 5757 5757 5753 5764 5772 5768 5767 5768 5769 5771 5770 5770 5769 5766 5763 5761 5758 5756 5755 5752 5750 5748 5744 5741 5740 5739 5737 5734 5733 5732 5730 5727 5726 5725
5705 5704 5705 5711 5710 5698 5735 5751 5749 5746 5751 5758 5758 5760 5761 5761 5760 5761 5763 5763 5763 5764 5763 5762 5760 5758 5757 5755 5753 5751 5748 5744 5741 5738 5736 5735 5733 5732 5730 5729 5727 5725 5723 5721
5702 5696 5697 5699 5699 5708 5725 5734 5735 5731 5736 5749 5748 5749 5752 5754 5752 5750 5752 5754 5755 5756 5756 5755 5757 5756 5754 5752 5750 5746 5743 5740 5737 5734 5732 5731 5729 5727 5726 5724 5723 5721 5718 5716
5692 5691 5688 5689 5684 5688 5711 5724 5730 5724 5718 5736 5737 5738 5741 5743 5740 5739 5740 5742 5744 5745 5747 5747 5748 5749 5746 5746 5745 5740 5736 5733 5730 5729 5726 5725 5723 5721 5719 5718 5716 5715 5712 5710
5677 5676 5677 5679 5679 5695 5708 5716 5718 5701 5707 5721 5726 5729 5732 5732 5731 5729 5730 5731 5733 5735 5736 5738 5738 5738 5737 5737 5735 5731 5728 5724 5723 5722 5720 5717 5716 5714 5712 5709 5707 5706 5704 5701
5674 5673 5671 5673 5670 5679 5700 5703 5698 5699 5708 5713 5716 5719 5719 5718 5718 5718 5718 5719 5721 5723 5725 5726 5726 5725 5726 5726 5724 5720 5716 5716 5715 5713 5710 5708 5706 5705 5703 5700 5697 5696 5694 5691
5671 5672 5674 5673 5676 5684 5690 5689 5692 5697 5698 5702 5705 5708 5708 5706 5705 5705 5706 5707 5709 5711 5713 5714 5714 5713 5712 5712 5711 5707 5704 5705 5704 5702 5700 5698 5696 5694 5693 5691 5689 5687 5684 5682
5666 5667 5664 5664 5673 5676 5678 5681 5685 5689 5690 5693 5696 5698 5699 5697 5694 5693 5693 5694 5696 5699 5701 5701 5701 5700 5698 5698 5697 5695 5694 5694 5693 5691 5690 5688 5686 5684 5682 5681 5680 5677 5675 5672
5657 5658 5657 5657 5663 5666 5668 5670 5674 5678 5682 5684 5685 5688 5689 5686 5683 5681 5680 5681 5682 5684 5685 5686 5684 5684 5683 5683 5683 5684 5683 5682 5681 5680 5678 5677 5675 5673 5670 5667 5663 5662 5658 5656
5652 5650 5649 5649 5653 5653 5654 5659 5665 5668 5669 5670 5671 5671 5671 5672 5669 5668 5667 5668 5668 5669 5670 5670 5669 5669 5669 5669 5669 5669 5670 5670 5669 5668 5667 5667 5665 5662 5660 5656 5651 5642 5642 5638